This is the latest recevied weather packets stored in our database for station/object SP1BMW-13. If no packets are shown the sender has not sent any weather packets the latest 10 day(s).
| Time | Temp. | Humidity | Pressure | Rain* | Wind** | Luminosity | Snow |
|---|---|---|---|---|---|---|---|
| 1788106301 | 25.56° C | 49% | 1008.5 hPa | 0 mm | 1.79 m/s, 246° | 136 W/m² | - |
| 1788106238 | 25.56° C | 49% | 1008.6 hPa | 0 mm | 0.89 m/s, 197° | 139 W/m² | - |
| 1788106178 | 25.56° C | 49% | 1008.6 hPa | 0 mm | 1.34 m/s, 211° | 141 W/m² | - |
| 1788106121 | 25.56° C | 49% | 1008.5 hPa | 0 mm | 1.79 m/s, 216° | 144 W/m² | - |
| 1788106058 | 25.56° C | 48% | 1008.6 hPa | 0 mm | 3.13 m/s, 302° | 147 W/m² | - |
| 1788105998 | 25.56° C | 49% | 1008.4 hPa | 0 mm | 1.79 m/s, 304° | 148 W/m² | - |
| 1788105938 | 25.56° C | 49% | 1008.3 hPa | 0 mm | 2.24 m/s, 292° | 151 W/m² | - |
| 1788105880 | 25.56° C | 49% | 1008.5 hPa | 0 mm | 1.34 m/s, 265° | 154 W/m² | - |
| 1788105818 | 25.56° C | 50% | 1008.5 hPa | 0 mm | 0.89 m/s, 228° | 156 W/m² | - |
| 1788105758 | 25.56° C | 49% | 1008.6 hPa | 0 mm | 2.24 m/s, 260° | 158 W/m² | - |
| 1788105698 | 25.56° C | 49% | 1008.5 hPa | 0 mm | 0.45 m/s, 255° | 145 W/m² | - |
| 1788105638 | 25.56° C | 49% | 1008.5 hPa | 0 mm | 0.89 m/s, 219° | 157 W/m² | - |
| 1788105578 | 25.56° C | 49% | 1008.5 hPa | 0 mm | 1.34 m/s, 113° | 163 W/m² | - |
| 1788105518 | 25.56° C | 49% | 1008.6 hPa | 0 mm | 1.34 m/s, 256° | 166 W/m² | - |
| 1788105458 | 25.56° C | 49% | 1008.5 hPa | 0 mm | 2.68 m/s, 284° | 168 W/m² | - |
| 1788105398 | 25.56° C | 49% | 1008.5 hPa | 0 mm | 1.34 m/s, 171° | 170 W/m² | - |
| 1788105338 | 25.56° C | 49% | 1008.4 hPa | 0 mm | 2.24 m/s, 182° | 170 W/m² | - |
| 1788105278 | 25.56° C | 49% | 1008.5 hPa | 0 mm | 2.24 m/s, 205° | 170 W/m² | - |
| 1788105218 | 25.56° C | 49% | 1008.5 hPa | 0 mm | 2.68 m/s, 204° | 171 W/m² | - |
| 1788105161 | 25.56° C | 49% | 1008.4 hPa | 0 mm | 0.45 m/s, 152° | 174 W/m² | - |
| 1788105100 | 25.56° C | 48% | 1008.6 hPa | 0 mm | 3.13 m/s, 196° | 175 W/m² | - |
| 1788105038 | 25.56° C | 49% | 1008.5 hPa | 0 mm | 1.34 m/s, 250° | 178 W/m² | - |
| 1788104981 | 25.56° C | 49% | 1008.5 hPa | 0 mm | 1.34 m/s, 270° | 180 W/m² | - |
| 1788104927 | 25.56° C | 48% | 1008.3 hPa | 0 mm | 2.24 m/s, 306° | 182 W/m² | - |
| 1788104858 | 26.11° C | 48% | 1008.4 hPa | 0 mm | 3.58 m/s, 217° | 185 W/m² | - |
* Rain latest hour (hover to see other rain measurements)
** Current wind speed in m/s (hover to see current wind gust speed)